Location: Asheville, NC
(35.6000°N, 82.5500°W)
Time: 07:37:02
(UTC-04:00)

RS-15 - Pass Details

Date: 06 January 2018
Orbit: 1890 x 2154 km, 64.8° (Epoch: 19 June)

Event Time Altitude Azimuth Distance (km) Brightness Sun altitude
Rises 21:22:49 0° 326° (NW) 5,539 10.8 -46.1°
Reaches altitude 10° 21:26:21 10° 322° (NW) 4,501 10.2 -46.9°
Maximum altitude 21:37:19 52° 250° (WSW) 2,339 8.4 -49.1°
Enters shadow 21:37:25 52° 249° (WSW) 2,339 8.4 -49.1°
